Location: Lynch Observatory
(39.9540°N, 75.1861°W)
Time: 23:34:22
(UTC-04:00)

ZACube-1 - Pass Details

Date: 29 April 2024
Orbit: 566 x 635 km, 97.7° (Epoch: 27 May)

Event Time Altitude Azimuth Distance (km) Brightness Sun altitude
Rises 02:54:22 0° 30° (NNE) 2,939 ? -29.1°
Reaches altitude 10° 02:57:15 10° 50° (NE) 2,029 ? -28.8°
Maximum altitude 03:00:13 18° 93° (E) 1,587 ? -28.5°
Enters shadow 03:01:15 16° 110° (ESE) 1,646 ? -28.3°
